Regional Weather Roundup
Issued by NWS Sterling, VA

Home | Current Version | Previous Version | Graphics & Text | Print | Product List | Glossary On
Versions: 1 2 3 4 5 6 7 8 9 10 11 12 13 14 15 16 17 18 19 20 21 22 23 24 25 26 27 28 29 30 31 32 33 34 35 36 37 38 39 40 41 42 43 44 45 46 47 48 49 50
000
ASUS41 KLWX 211510
RWRLWX

REGIONAL WEATHER ROUNDUP
NATIONAL WEATHER SERVICE BALTIMORE MD/WASHINGTON DC
1000 AM EST SUN DEC 21 2014

Note: "FAIR" indicates few or no clouds below 12,000 feet
with no significant weather and/or obstructions to visibility.
 TC=TEMPERATURE CELSIUS

 * =Non NWS site. Station does not report precipitation (e.g. rain,
    snow, etc.), thunder, or fog.

DCZ001-MDZ009-015-VAZ040>042-051-053>054-211600-
WASHINGTON METRO

CITY           SKY/WX    TMP DP  RH WIND       PRES   REMARKS
WASHINGTON NAT CLOUDY    38  23  55 NE5       30.38R
DULLES         CLOUDY    33  24  69 CALM      30.36R
ANDREWS AFB    CLOUDY    34  23  64 CALM      30.36R
FT BELVOIR     CLOUDY    37  24  59 NE3       30.38R
QUANTICO       CLOUDY    38  23  55 NE5       30.39R
COLLEGE PARK*  CLOUDY    36  25  64 N3        30.37R
LEESBURG*      CLOUDY    34  28  80 CALM      30.36S
MANASSAS*      CLOUDY    36  28  75 N5        30.37R
GAITHERSBURG*  CLOUDY    32  21  64 CALM      30.38S

$$

MDZ006>007-011-014-211600-
BALTIMORE METRO

CITY           SKY/WX    TMP DP  RH WIND       PRES   REMARKS
BWI AIRPORT    PTSUNNY   34  23  64 CALM      30.36R
MD SCIENCE CTR   N/A     35  21  56 MISG      30.37R
MARTIN STATE   PTSUNNY   36  27  69 NW7       30.38R
ANNAPOLIS      CLOUDY    36  25  64 N5        30.37R
FORT MEADE*    CLOUDY    34  25  69 CALM      30.39R

$$

MDZ012-015-019>023-211600-
MARYLAND EASTERN SHORE

CITY           SKY/WX    TMP DP  RH WIND       PRES   REMARKS
OCEAN CITY     CLOUDY    36  28  73 N6        30.35R
SALISBURY      CLOUDY    37  27  67 CALM      30.35R
BAY BRIDGE AP*   N/A     36  25  64 NW5       30.38R
CAMBRIDGE*     MOSUNNY   36  28  75 N6        30.36R
EASTON*        CLOUDY    36  30  80 CALM      30.40

$$

MDZ017>025-211600-
SOUTHERN MARYLAND

CITY           SKY/WX    TMP DP  RH WIND       PRES   REMARKS
PATUXENT RIVER CLOUDY    37  28  70 N6        30.36R
ST INIGOES     CLOUDY    38  27  64 CALM      30.36R
LEONARDTOWN*   CLOUDY    36  28  75 CALM      30.37R

$$

MDZ003>005-211600-
NORTH CENTRAL MARYLAND

CITY           SKY/WX    TMP DP  RH WIND       PRES   REMARKS
FREDERICK*     CLOUDY    34  21  60 CALM      30.39R
HAGERSTOWN APT CLOUDY    33  22  63 CALM      30.33S
WESTMINSTER*   SUNNY     32  21  64 NW3       30.33R

$$

MDZ501>502-211600-
WESTERN MARYLAND

CITY           SKY/WX    TMP DP  RH WIND       PRES   REMARKS
OAKLAND*       CLOUDY    27 N/A N/A CALM      30.21S
CUMBERLAND*    CLOUDY    32  27  80 CALM      30.37S

$$

VAZ025>031-211600-
SHENANDOAH VALLEY

CITY           SKY/WX    TMP DP  RH WIND       PRES   REMARKS
WINCHESTER*    CLOUDY    34  21  60 CALM      30.34R
FRONT ROYAL*   CLOUDY    32  25  74 CALM      30.33S
LURAY*         CLOUDY    36  28  75 CALM      30.33R
NEW MARKET*    CLOUDY    33  24  71 CALM      30.31S
STAUNTON*      CLOUDY    34  26  72 CALM      30.32S
WAYNESBORO*    CLOUDY    33  26  77 CALM      30.29S

$$

WVZ021-048>050-054>055-211600-
EASTERN WEST VIRGINIA PANHANDLE

CITY           SKY/WX    TMP DP  RH WIND       PRES   REMARKS
MARTINSBURG    CLOUDY    33  22  63 CALM      30.35R
PETERSBURG*    CLOUDY    35  26  69 CALM      30.33R

$$

VAZ036>039-050-211600-
CENTRAL FOOTHILLS

CITY           SKY/WX    TMP DP  RH WIND       PRES   REMARKS
CHARLOTTESVILL CLOUDY    35  25  66 E5        30.33R
CULPEPER*      CLOUDY    36  27  69 CALM      30.36S
ORANGE*        CLOUDY    36  28  75 CALM      30.36S
GORDONSVILLE*  CLOUDY    35  27  74 E3        30.35R
WARRENTON*     CLOUDY    36  31  80 N3        30.36R

$$

VAZ055>057-211600-
NORTH AND CENTRAL PIEDMONT

CITY           SKY/WX    TMP DP  RH WIND       PRES   REMARKS
FREDERICKSBRG* CLOUDY    37  26  64 CALM      30.37R
STAFFORD*      CLOUDY    36  24  62 CALM      30.41R

$$

NCZ024-NYZ072-PAZ021-071-VAZ022-071-211600-
OTHER REGIONAL OBSERVATIONS

CITY           SKY/WX    TMP DP  RH WIND       PRES   REMARKS
NEW YORK CITY  CLOUDY    32  25  75 VRB5      30.34R
PHILADELPHIA   MOSUNNY   36  20  52 NW6       30.36R
PITTSBURGH     CLOUDY    30  20  66 CALM      30.31R
ROANOKE        CLOUDY    39  28  64 CALM      30.31R
RICHMOND       CLOUDY    39  25  57 NE3       30.36R
RALEIGH        CLOUDY    40  34  79 E5        30.33R

$$

ANZ530>537-211600-
MARINE OBSERVATIONS

STATION/POSITION TIME  TEMP    WIND        PRES
                       AIR SEA DIR/SP/G
                 (UTC) (F)     (DEG/KT/KT) (MB)
THOMAS PT LIGHT  1500   35 40  360/  6/  7 1029.4R
BALT KEY BRIDGE  1500   34     330/  5/  6 1028.2R
COVE POINT       1500   35      40/  5/  6 1027.9R
LEWISETTA        1500   37 41   10/  4/  6 1027.8R
SOLOMONS ISLAND  1500      42                N/A

$$




USA.gov is the U.S. government's official web portal to all federal, state and local government web resources and services.